This demonstration page uses our WeatherBlox Daily Observations layout. Learn more.

Left ArrowRight Arrow

41.12389, -100.76542

Hourly Observations for March 20, 2019

Temp ( °F °C ) Dew Point ( °F °C ) Humidity (%) Winds ( mph kmh ) Pressure ( in mb ) Visibility ( mi km ) Precip ( " mm )
12:53 am 00:53 Clear with Mist and Fog 23 -5 21 -6.1 92 92 NNW 3 6 30.32 1027 6 10 0.00 0.00
1:53 am 01:53 Clear 22 -5.6 20 -6.7 92 92 NNW 3 6 30.31 1026 8 13 0.00 0.00
2:53 am 02:53 Clear with Mist and Fog 21 -6.1 20 -6.7 96 96 NNW 3 6 30.30 1026 5 8 0.00 0.00
3:53 am 03:53 Clear with Mist and Fog 20 -6.7 18 -7.8 92 92 NNW 6 9 30.30 1026 5 8 0.00 0.00
4:53 am 04:53 Clear 23 -5 21 -6.1 92 92 NNW 7 11 30.27 1025 9 14 0.00 0.00
5:53 am 05:53 Clear 21 -6.1 19 -7.2 92 92 NNW 6 9 30.26 1025 10 16 0.00 0.00
6:53 am 06:53 Clear 22 -5.6 20 -6.7 92 92 N 6 9 30.25 1025 10 16 0.00 0.00
7:53 am 07:53 Sunny 22 -5.6 19 -7.2 89 89 NW 7 11 30.26 1025 10 16 0.00 0.00
8:53 am 08:53 Sunny 30 -1.1 26 -3.3 85 85 NW 10 17 30.25 1025 10 16 0.00 0.00
10:53 am 10:53 Sunny 43 6.1 30 -1.1 60 60 WNW 12 19 30.24 1024 10 16 0.00 0.00
12:53 pm 12:53 Sunny 58 14.4 23 -5 26 26 NNW 16 26 30.19 1022 10 16 0.00 0.00
1:53 pm 13:53 Sunny 61 16.1 24 -4.4 24 24 N 18 30 30.17 1022 10 16 0.00 0.00
2:53 pm 14:53 Sunny 63 17.2 26 -3.3 25 25 NNW 23 37 30.14 1021 10 16 0.00 0.00
3:53 pm 15:53 Sunny 63 17.2 25 -3.9 24 24 N 18 30 30.13 1020 10 16 0.00 0.00
4:53 pm 16:53 Sunny 62 16.7 27 -2.8 26 26 NNE 21 33 30.15 1021 10 16 0.00 0.00
5:53 pm 17:53 Sunny 60 15.6 29 -1.7 31 31 N 18 30 30.18 1022 10 16 0.00 0.00
6:53 pm 18:53 Sunny 57 13.9 29 -1.7 34 34 N 16 26 30.20 1023 10 16 0.00 0.00
7:53 pm 19:53 Sunny 50 10 30 -1.1 46 46 N 8 13 30.23 1024 10 16 0.00 0.00
8:53 pm 20:53 Clear 43 6.1 30 -1.1 60 60 NNE 10 17 30.25 1024 10 16 0.00 0.00
9:53 pm 21:53 Clear 40 4.4 30 -1.1 68 68 NNE 10 17 30.27 1025 10 16 0.00 0.00
10:53 pm 22:53 Clear 34 1.1 28 -2.2 79 79 NE 7 11 30.27 1025 10 16 0.00 0.00
11:53 pm 23:53 Clear 36 2.2 29 -1.7 76 76 Calm 30.26 1025 10 16 0.00 0.00

Powered by AerisWeather